Chadron, NE

3:01 PM MDT on March 23, 2017 (GMT -0600)
Chadron Municipal

Weather History for KCDR - November, 2012

Change the Weather History Date:

Saturday, November 10, 2012

  Actual Average Record
Temperature  
Mean Temperature 27 °F 37 °F  
Max Temperature 38 °F 52 °F 77 °F (1954)
Min Temperature 16 °F 22 °F -5 °F (1986)
Degree Days  
Heating Degree Days 38 28  
Month to date heating degree days 224 260  
Since 1 July heating degree days 895 1013  
Cooling Degree Days 0 0  
Month to date cooling degree days 0 0  
Year to date cooling degree days 1167 712  
Moisture  
Dew Point 26 °F    
Average Humidity 84    
Maximum Humidity 100    
Minimum Humidity 67    
Precipitation  
Precipitation 0.00 in 0.02 in 0.48 in (1998)
Month to date precipitation T 0.26  
Year to date precipitation 7.26 17.17  
Sea Level Pressure  
Sea Level Pressure 29.73 in    
Wind  
Wind Speed 10 mph (North)    
Max Wind Speed 22 mph    
Max Gust Speed 28 mph    
Visibility 2 miles    
Events Fog , Snow    
T = Trace of Precipitation, MM = Missing Value Source: NWS Daily Summary

Daily Weather History Graph

Daily Weather History Graph

Search for Another Location

Airport or City:

Trip Planner

Search our weather history database for the weather conditions in past years. The results will help you decide how hot, cold, wet, or windy it might be!

Date:

Astronomy

Nov. 10, 2012 Rise Set
Actual Time 6:38 AM MST 4:33 PM MST
Civil Twilight 6:08 AM MST 5:03 PM MST
Nautical Twilight 5:34 AM MST 5:37 PM MST
Astronomical Twilight 5:01 AM MST 6:10 PM MST
Moon 2:41 AM MST (11/10) 2:25 PM MST (11/10)
Length of Visible Light 10h 55m
Length of Day
9h 54m
Waning Crescent, 14% of the Moon is Illuminated
Nov 10
Waning Crescent
Nov 13
New
Nov 20
First Quarter
Nov 28
Full
Dec 6
Last Quarter

Hourly Weather History & Observations

Time (MST) Temp. Windchill Dew Point Humidity Pressure Visibility Wind Dir Wind Speed Gust Speed Precip Events Conditions
12:49 AM 37.4 °F 33.8 °F 35.6 °F 93% 29.59 in 2.5 mi NNE 4.6 mph - N/A   Overcast
12:53 AM 37.0 °F 34.5 °F 36.0 °F 96% 29.62 in 2.0 mi NNE 3.5 mph - N/A   Overcast
12:59 AM 37.4 °F 32.8 °F 35.6 °F 93% 29.58 in 1.5 mi NE 5.8 mph - N/A   Overcast
1:53 AM 37.0 °F - 36.0 °F 96% 29.61 in 1.5 mi Calm Calm - N/A   Overcast
2:26 AM 35.6 °F 31.7 °F 35.6 °F 100% 29.58 in 0.8 mi NE 4.6 mph - N/A   Overcast
2:50 AM 35.6 °F 30.7 °F 35.6 °F 100% 29.57 in 1.0 mi NE 5.8 mph - N/A   Overcast
2:53 AM 36.0 °F 31.1 °F 36.0 °F 100% 29.60 in 1.0 mi NE 5.8 mph - N/A   Overcast
3:04 AM 35.6 °F 29.9 °F 35.6 °F 100% 29.57 in 0.8 mi North 6.9 mph - N/A   Overcast
3:32 AM 35.6 °F 28.0 °F 35.6 °F 100% 29.57 in 1.0 mi NNE 10.4 mph - N/A   Overcast
3:53 AM 35.1 °F 27.4 °F 35.1 °F 100% 29.61 in 1.0 mi North 10.4 mph - N/A   Overcast
4:53 AM 35.1 °F 27.9 °F 34.0 °F 96% 29.63 in 1.5 mi North 9.2 mph - N/A   Overcast
5:25 AM 35.6 °F 29.9 °F 33.8 °F 93% 29.60 in 2.0 mi North 6.9 mph - N/A   Overcast
5:43 AM 35.6 °F 28.0 °F 33.8 °F 93% 29.58 in 3.0 mi North 10.4 mph - N/A   Overcast
5:53 AM 35.1 °F 28.6 °F 34.0 °F 96% 29.66 in 3.0 mi North 8.1 mph - N/A   Overcast
6:53 AM 35.1 °F 30.1 °F 34.0 °F 96% 29.68 in 2.5 mi NNE 5.8 mph - N/A   Overcast
7:29 AM 35.6 °F 29.2 °F 33.8 °F 93% 29.62 in 3.0 mi North 8.1 mph - N/A   Overcast
7:53 AM 35.1 °F 27.9 °F 34.0 °F 96% 29.70 in 3.0 mi North 9.2 mph - N/A   Overcast
8:47 AM 35.6 °F 28.6 °F 33.8 °F 93% 29.64 in 2.5 mi North 9.2 mph - N/A   Overcast
8:51 AM 35.6 °F 28.6 °F 33.8 °F 93% 29.64 in 1.8 mi North 9.2 mph - N/A   Overcast
8:53 AM 35.1 °F 27.9 °F 34.0 °F 96% 29.71 in 1.8 mi North 9.2 mph - 0.00 in   Overcast
9:53 AM 34.0 °F 25.5 °F 33.1 °F 96% 29.67 in 2.0 mi NE 11.5 mph - 0.00 in Snow Light Snow
10:07 AM 33.8 °F 24.3 °F 32.0 °F 93% 29.61 in 3.0 mi NNE 13.8 mph - 0.00 in   Overcast
10:36 AM 33.8 °F 25.3 °F 32.0 °F 93% 29.61 in 2.5 mi NNE 11.5 mph - 0.00 in Snow Light Snow
10:53 AM 34.0 °F 23.8 °F 32.0 °F 92% 29.69 in 3.0 mi NNE 16.1 mph - 0.00 in Snow Light Snow
11:27 AM 33.8 °F 23.9 °F 30.2 °F 87% 29.62 in 5.0 mi NNE 15.0 mph - 0.00 in   Overcast
11:37 AM 32.0 °F 22.1 °F 30.2 °F 93% 29.62 in 1.8 mi NNE 13.8 mph - 0.00 in Snow Light Snow
11:50 AM 32.0 °F 22.5 °F 30.2 °F 93% 29.62 in 1.0 mi NNE 12.7 mph - 0.00 in Snow Light Snow
11:53 AM 32.0 °F 22.5 °F 30.0 °F 92% 29.70 in 0.8 mi NNE 12.7 mph - 0.00 in Snow Light Snow
12:07 PM 30.2 °F 20.2 °F 30.2 °F 100% 29.64 in 0.2 mi North 12.7 mph 20.7 mph 0.00 in Fog , Snow Snow
12:53 PM 28.9 °F 17.7 °F 28.0 °F 96% 29.73 in 0.2 mi North 15.0 mph - 0.00 in Fog Light Freezing Fog
1:53 PM 28.0 °F 16.5 °F 26.1 °F 92% 29.77 in 0.2 mi North 15.0 mph - 0.00 in Fog , Snow Snow
2:01 PM 26.6 °F 16.2 °F 24.8 °F 93% 29.68 in 0.2 mi North 11.5 mph - 0.00 in Fog , Snow Snow
2:27 PM 26.6 °F 16.8 °F 24.8 °F 93% 29.70 in 0.5 mi North 10.4 mph - 0.00 in Fog , Snow Snow
2:42 PM 26.6 °F 17.5 °F 24.8 °F 93% 29.71 in 0.5 mi North 9.2 mph - 0.00 in Fog , Snow Snow
2:46 PM 26.6 °F 17.5 °F 24.8 °F 93% 29.71 in 0.2 mi North 9.2 mph - 0.00 in Fog , Snow Snow
2:53 PM 26.1 °F 15.6 °F 24.1 °F 92% 29.82 in 0.2 mi North 11.5 mph - 0.00 in Fog , Snow Snow
3:53 PM 24.1 °F 14.4 °F 21.0 °F 88% 29.86 in 0.2 mi North 9.2 mph - 0.00 in Fog , Snow Snow
4:16 PM 24.8 °F 17.9 °F 21.2 °F 86% 29.79 in 0.5 mi North 5.8 mph - 0.00 in Fog , Snow Snow
4:35 PM 23.0 °F 13.1 °F 19.4 °F 86% 29.79 in 1.2 mi North 9.2 mph - 0.00 in Snow Light Snow
4:50 PM 23.0 °F 15.8 °F 19.4 °F 86% 29.80 in 0.8 mi North 5.8 mph - 0.00 in Snow Light Snow
4:53 PM 23.0 °F 15.8 °F 19.9 °F 88% 29.92 in 0.8 mi North 5.8 mph - 0.00 in Snow Light Snow
5:17 PM 21.2 °F 14.9 °F 19.4 °F 93% 29.81 in 0.5 mi NW 4.6 mph - 0.00 in Fog , Snow Snow
5:30 PM 21.2 °F 10.9 °F 19.4 °F 93% 29.83 in 0.5 mi WNW 9.2 mph - 0.00 in Fog , Snow Snow
5:46 PM 21.2 °F 10.1 °F 17.6 °F 86% 29.84 in 0.8 mi WNW 10.4 mph - 0.00 in Snow Light Snow
5:53 PM 21.0 °F 12.4 °F 18.0 °F 88% 29.96 in 0.8 mi WNW 6.9 mph - 0.00 in Snow Light Snow
6:01 PM 21.2 °F 9.5 °F 17.6 °F 86% 29.83 in 1.2 mi NW 11.5 mph - 0.00 in Snow Light Snow
6:14 PM 21.2 °F 10.9 °F 17.6 °F 86% 29.83 in 2.0 mi NW 9.2 mph - 0.00 in Snow Light Snow
6:26 PM 21.2 °F 8.9 °F 15.8 °F 80% 29.83 in 5.0 mi WNW 12.7 mph - 0.00 in Snow Light Snow
6:53 PM 21.0 °F 11.4 °F 15.1 °F 78% 29.95 in 5.0 mi NW 8.1 mph - 0.00 in Snow Light Snow
7:00 PM 21.2 °F 10.9 °F 15.8 °F 80% 29.82 in 4.0 mi WNW 9.2 mph - 0.00 in Snow Light Snow
7:39 PM 21.2 °F 13.6 °F 15.8 °F 80% 29.83 in 6.0 mi North 5.8 mph - 0.00 in Snow Light Snow
7:53 PM 19.9 °F 11.1 °F 17.1 °F 89% 29.96 in 9.0 mi ENE 6.9 mph - 0.00 in   Overcast
8:31 PM 19.4 °F 7.2 °F 15.8 °F 86% 29.85 in 9.0 mi East 11.5 mph - N/A   Overcast
9:53 PM 19.0 °F 2.7 °F 10.9 °F 71% 30.01 in 6.0 mi WNW 20.7 mph 27.6 mph 0.00 in   Haze
10:39 PM 17.6 °F 2.2 °F 10.4 °F 73% 29.89 in 7.0 mi West 17.3 mph - N/A   Overcast
10:53 PM 18.0 °F 1.7 °F 10.9 °F 74% 30.02 in 6.0 mi West 19.6 mph 27.6 mph N/A   Haze
11:53 PM 16.0 °F -0.9 °F 10.0 °F 77% 30.05 in 7.0 mi WNW 19.6 mph 25.3 mph N/A   Overcast